Regional Weather Roundup
Issued by NWS

Home | Current Version | Previous Version | Text Only | Print | Product List | Glossary Off
Versions: 1 2 3 4 5 6 7 8 9 10 11 12 13 14 15 16 17 18 19 20 21 22 23 24 25 26 27 28 29 30 31 32 33 34 35 36 37 38 39 40 41 42 43 44 45 46 47 48 49 50

000
ASUS43 KIND 240409
RWRIN

WEATHER ROUNDUP FOR INDIANA
NATIONAL WEATHER SERVICE INDIANAPOLIS IN
1200 AM EDT THU JUL 24 2014

NOTE: "FAIR" INDICATES FEW OR NO CLOUDS BELOW 12,000 FEET WITH NO
SIGNIFICANT WEATHER AND/OR OBSTRUCTIONS TO VISIBILITY.

* - STATION DOES NOT REPORT WEATHER SUCH AS PRECIPITATION OR FOG.

+ - STATION NOT QUALITY CONTROLLED BY THE NATIONAL WEATHER SERVICE.
    USE DATA WITH CAUTION...ESPECIALLY DEWPOINT AND RELATIVE
    HUMIDITY OBSERVATIONS.

INZ001>003-010>013-019-020-240500-
NORTHWEST INDIANA

CITY           SKY/WX    TMP DP  RH WIND       PRES   REMARKS
GARY /AIRPORT/ CLEAR     64  57  80 N8        30.13S
KNOX *+        CLEAR     54  52  91 NW6       30.10S
LA PORTE +     PTCLDY    59  56  92 N8        30.11S
MICHIGAN CITY+ CLEAR     57  55  94 N3        30.11F
MONTICELLO +   CLEAR     57  53  87 NW6       30.09S
RENSSELAER +   CLEAR     55  54  94 N5        30.11S
VALPARAISO     CLEAR     57  53  86 CALM      30.11S

$$

LMZ046-743>745-240500-
SOUTHERN LAKE MICHIGAN

STATION/POSITION TIME  TEMP WIND        PRES
                       AIR  DIR/SP/G
                 (UTC) (F)  (DEG/KT/KT) (MB)
MICHIGAN CITY    0400   65   20/ 18/ 20   N/A

$$

INZ004-005-014>016-021>024-240500-
NORTH CENTRAL INDIANA

CITY           SKY/WX    TMP DP  RH WIND       PRES   REMARKS
GOSHEN         CLEAR     62  57  83 N7        30.09S
LOGANSPORT +   CLEAR     57  52  82 N8        30.09S
PERU/GRISSOM   CLEAR     61  58  92 N6        30.07F
ROCHESTER +    CLEAR     61  54  77 CALM      30.09F
SOUTH BEND     CLEAR     59  54  83 N6        30.11R
WARSAW +       MOCLDY    59  55  88 N3        30.09S

$$

INZ006>009-017-018-025>027-240500-
NORTHEAST INDIANA

CITY           SKY/WX    TMP DP  RH WIND       PRES   REMARKS
ANGOLA *+      CLEAR     64  55  72 NE6       30.08F
AUBURN +       PTCLDY    64  54  68 NE5       30.08S
FORT WAYNE     MOCLDY    64  57  78 N3        30.07S
HUNTINGTON +   PTCLDY    62  59  88 N3        30.06S

$$

INZ028-029-035-036-043>045-051>053-240500-
WEST CENTRAL INDIANA

CITY           SKY/WX    TMP DP  RH WIND       PRES   REMARKS
GREENCASTLE +  MOCLDY    59  54  82 N7        30.08S
LAFAYETTE      CLEAR     59  50  72 N8        30.09F
TERRE HAUTE    CLEAR     61  50  67 N8        30.08F

$$

INZ030>032-037>040-046>048-054>057-064-065-240500-
CENTRAL INDIANA

CITY           SKY/WX    TMP DP  RH WIND       PRES   REMARKS
CP ATTERBURY + PTCLDY    64  61  88 N6        30.05S
FRANKFORT +    CLEAR     57  54  88 NW6       30.09
INDIANAPOLIS   CLEAR     63  57  81 N13       30.05S
-EAGLE CREEK   CLEAR     62  56  80 N12       30.05F
KOKOMO *+      CLEAR     61  54  77 N8        30.07F
MARION +       CLEAR     62  58  88 N5        30.07F
MT COMFORT *+  PTCLDY    63 N/A N/A N12       30.06S
SHELBYVILLE    CLOUDY    67  61  81 N12       30.04S
ZIONSVILLE +   PTCLDY    61  55  79 N8        30.07F

$$

INZ033-034-041-042-049-050-058-059-240500-
EAST CENTRAL INDIANA

CITY           SKY/WX    TMP DP  RH WIND       PRES   REMARKS
MUNCIE         PTCLDY    65  59  81 NE5       30.06S

$$

INZ060-061-067>069-081>083-085>088-240500-
SOUTHWEST INDIANA

CITY           SKY/WX    TMP DP  RH WIND       PRES   REMARKS
EVANSVILLE     CLOUDY    72  61  68 N12       30.05R
HUNTINGBURG *+ MOCLDY    72  61  68 N8G17     30.03S
WASHINGTON +   CLOUDY    66  59  77 N10G16    30.06R

$$

INZ062-063-066-070>080-084-089>092-240500-
SOUTH CENTRAL AND SOUTHEAST INDIANA

CITY           SKY/WX    TMP DP  RH WIND       PRES   REMARKS
BEDFORD +      CLOUDY    70  59  68 N7        30.03F
BLOOMINGTON    CLEAR     64  57  78 N8        30.06S
NORTH VERNON + CLOUDY    68  68 100 N5        30.03F
SEYMOUR +      CLOUDY    66  55  68 NE6       30.02F

$$



USA.gov is the U.S. government's official web portal to all federal, state and local government web resources and services.